Wetbulb
57.10 56.64 55.74 55.09 54.00 53.36 52.04 50.82 49.76 49.58 49.32 49.43 48.73 48.38 46.91 45.59 45.22 45.46 45.96 53.32 57.28 57.69 56.93 57.44 56.88 55.54 54.87 54.85 54.67 54.42 54.29 54.62 54.79 54.56 54.35 53.83 53.30 53.12 52.81 52.93 53.24 53.55 53.88
57.16 55.91 54.30 53.07 52.09 51.45 50.43 49.67 48.86 48.64 48.09 48.18 46.73 46.89 45.33 44.78 43.83 43.62 43.70 44.06 52.98 56.94 57.49 56.40 55.05 54.26 53.69 53.22 52.77 52.61 52.82 53.87 53.29 53.17 53.50 52.68 51.68 51.73 51.65 51.61 51.71 52.18 52.67
56.87 54.64 53.00 51.96 51.62 50.10 49.87 49.29 48.75 48.24 47.68 47.34 44.50 44.60 44.17 43.93 42.93 42.42 42.59 44.13 49.45 54.52 56.50 54.44 52.64 52.67 51.90 52.08 51.40 51.49 51.95 51.45 51.89 52.97 52.50 51.69 51.17 50.61 50.32 50.25 50.28 50.52 51.14
55.92 53.22 51.27 50.58 50.76 50.00 48.84 48.09 47.61 46.33 45.68 43.64 42.14 41.74 42.48 41.84 41.92 41.29 41.16 41.23 43.29 48.97 50.84 53.20 52.29 51.75 50.96 50.89 50.71 50.83 51.22 51.12 51.15 50.86 50.85 50.39 50.09 49.49 49.13 48.90 49.09 49.23 49.68
55.03 51.77 50.18 50.14 49.37 47.90 47.23 47.39 44.84 45.18 43.19 42.17 43.07 40.85 41.03 39.76 39.92 41.71 39.92 40.34 42.01 43.93 43.44 47.53 49.90 50.35 49.06 48.62 48.69 49.10 49.60 50.04 50.31 50.31 49.55 49.08 48.68 48.15 47.93 47.86 47.90 48.35 48.66
52.57 50.23 49.61 48.81 47.48 45.59 44.71 44.04 42.85 42.87 42.09 41.27 43.65 40.66 38.57 38.66 38.72 38.00 37.55 39.75 39.26 39.15 39.55 39.68 39.76 41.06 49.01 47.79 47.67 47.87 48.40 48.56 48.77 48.28 47.58 47.77 47.34 47.07 46.87 47.08 47.37 47.54 47.84
50.61 48.90 47.71 47.04 46.11 44.60 43.88 43.76 42.32 41.24 41.18 39.84 38.49 38.25 37.79 37.77 37.34 37.38 36.73 35.79 36.90 37.35 37.36 37.69 38.02 37.66 38.71 44.61 45.67 46.63 47.07 47.35 47.33 47.42 47.20 46.90 46.21 45.91 45.95 46.40 46.79 46.88 47.18
49.21 48.54 46.95 45.82 44.74 43.80 42.75 42.19 41.58 40.51 40.59 38.89 37.00 35.49 33.04 35.74 36.81 37.17 34.99 35.89 33.40 35.10 36.27 37.33 36.73 37.04 36.23 35.48 40.02 44.39 45.14 45.79 45.97 46.03 45.80 45.35 45.49 45.50 45.81 45.92 46.26 46.52 46.69
48.85 47.68 46.16 44.89 44.02 43.98 41.99 41.54 41.53 40.54 38.82 39.43 38.44 37.17 32.44 30.45 31.82 34.59 34.27 33.28 32.74 32.91 33.43 34.66 35.74 35.98 35.26 34.46 37.70 39.08 42.27 42.00 42.64 43.56 44.18 44.73 44.97 45.20 45.54 45.94 46.02 46.00 46.15
45.27 43.77 42.69 41.83 41.38 41.17 40.26 40.55 41.93 40.10 38.79 37.34 36.93 39.44 35.67 34.53 30.82 30.17 32.26 32.40 32.65 33.75 32.74 33.21 33.54 34.57 35.11 34.49 37.32 40.02 42.13 43.18 41.95 42.70 43.47 43.83 44.28 44.57 44.85 45.00 45.03 45.15 45.38
42.87 43.10 42.62 42.25 41.68 40.38 39.73 39.51 39.92 39.80 38.96 37.01 36.38 36.28 35.23 33.85 32.96 31.12 27.02 29.16 31.47 32.65 32.90 33.32 33.19 32.80 34.02 34.14 32.96 35.85 41.60 42.63 41.96 41.29 41.83 42.70 43.27 43.77 44.07 44.12 44.12 44.29 44.57
41.36 41.17 41.85 41.13 42.30 41.68 40.27 40.92 39.38 39.29 39.27 38.48 37.68 37.29 36.27 34.14 32.01 30.45 28.69 27.67 27.62 30.82 31.95 33.63 32.90 32.80 33.17 33.28 37.24 39.67 40.08 38.98 38.64 39.26 39.98 41.02 41.71 42.44 42.88 43.03 43.10 43.20 43.81
40.25 41.08 42.09 41.78 41.64 40.98 41.05 40.99 39.24 38.94 37.69 36.91 36.47 36.88 36.39 35.41 34.81 33.03 30.46 29.22 28.29 29.06 31.89 33.00 32.91 32.82 34.10 31.73 32.87 37.38 37.63 36.84 36.87 37.42 38.35 39.26 39.88 40.36 40.79 41.03 41.32 42.35 43.04
41.63 41.73 41.76 41.73 41.11 41.01 39.63 36.71 36.83 37.41 38.06 37.33 37.64 37.51 36.70 36.68 36.22 34.83 32.29 33.23 33.23 32.12 29.77 31.19 31.46 31.34 30.84 30.55 32.68 36.05 31.23 34.74 35.35 36.08 36.83 37.05 37.31 37.91 38.44 39.26 40.14 41.01 41.78
42.11 41.71 41.24 40.70 40.84 39.89 37.57 36.94 36.31 36.64 37.84 37.40 37.06 36.71 37.03 37.67 36.50 36.73 37.02 37.21 35.24 28.78 25.12 27.67 27.79 29.09 28.87 28.67 29.51 29.57 28.40 32.94 34.40 34.53 34.61 35.56 36.35 36.88 37.45 38.00 38.69 39.44 40.06
42.41 41.37 40.70 40.54 39.80 38.64 37.75 36.35 36.49 37.29 36.68 35.70 36.10 35.68 35.48 36.39 36.86 36.51 35.65 33.83 33.40 28.47 24.31 26.07 25.68 25.96 26.43 28.69 29.20 28.04 27.74 32.94 32.62 33.53 34.01 34.20 34.81 35.84 36.18 36.36 37.12 37.87 38.34
41.76 41.47 41.24 39.99 38.35 37.41 37.73 37.00 36.20 35.77 35.17 34.74 34.75 33.95 34.73 35.46 35.02 34.04 33.11 30.92 28.81 28.28 25.44 24.17 24.64 24.64 23.77 23.72 25.25 25.73 27.74 27.01 27.63 32.39 32.96 33.60 33.60 33.67 33.90 34.83 35.85 36.67 36.96
40.98 40.79 39.27 38.12 37.70 37.56 37.41 36.29 35.04 35.87 34.91 33.26 33.77 34.00 34.17 36.47 33.12 31.28 29.39 27.83 25.98 24.71 23.32 21.00 21.88 22.33 22.61 23.43 23.91 23.97 27.01 29.26 26.98 30.94 32.38 32.21 32.05 32.00 32.45 33.07 35.29 35.43 35.82
38.94 38.19 37.57 37.29 37.50 38.00 37.67 36.39 35.49 35.21 34.07 33.39 33.65 32.99 32.37 31.85 29.13 27.98 26.52 25.04 23.75 25.68 23.12 21.41 21.39 22.31 22.42 22.99 23.44 24.54 25.12 25.83 28.36 30.87 30.27 30.39 30.68 31.14 31.74 32.55 33.43 33.61 34.38
38.81 38.34 38.46 38.68 38.37 37.58 36.84 36.68 35.98 34.25 33.55 33.66 33.84 32.92 32.07 30.29 28.36 26.21 25.21 23.72 23.39 22.12 22.18 21.21 21.36 21.42 21.54 23.11 22.85 22.24 22.23 24.55 24.32 26.68 27.93 28.54 29.87 30.72 31.52 31.18 31.68 32.76 33.37
39.67 39.38 38.93 38.81 38.68 38.06 36.85 35.97 34.83 33.42 31.92 31.15 31.00 30.55 29.27 29.54 31.79 28.18 24.97 22.88 22.30 21.36 21.03 20.34 19.81 20.18 20.61 20.05 19.61 20.71 20.13 21.31 22.80 24.22 23.83 24.61 25.50 26.36 26.72 28.98 30.35 31.88 32.40
38.76 38.89 38.54 37.92 37.11 36.73 36.54 36.64 34.51 31.27 30.74 29.19 28.24 27.88 27.44 31.65 32.24 32.34 31.75 30.01 25.58 21.72 19.92 18.60 19.09 18.71 18.37 18.85 19.03 18.92 19.32 19.60 18.90 23.79 22.82 23.76 26.00 24.73 26.05 26.80 29.77 31.63 32.59
38.59 37.57 36.79 36.25 35.98 36.03 36.23 36.72 35.22 30.02 28.88 28.00 27.58 27.11 27.02 28.18 29.45 27.97 29.99 28.52 27.16 26.97 26.39 20.60 18.43 18.56 18.34 19.65 20.04 20.24 21.12 22.00 21.64 24.20 24.16 22.54 24.49 22.81 25.78 27.64 30.35 32.03 33.54
37.57 36.84 35.62 35.30 34.87 34.74 35.65 35.80 34.32 28.56 27.44 27.45 27.69 26.85 26.01 25.88 26.53 25.63 24.03 23.03 23.03 23.45 23.25 23.10 21.00 20.75 20.89 22.05 22.41 23.99 25.15 25.06 24.19 24.27 24.37 21.16 23.79 22.64 25.46 25.89 30.37 32.29 33.45
36.55 34.73 34.87 32.94 31.69 31.41 34.49 34.96 32.56 26.79 26.59 27.10 28.44 27.64 27.06 25.83 28.15 30.14 24.51 23.34 22.76 22.91 25.65 27.02 27.17 27.37 27.48 27.27 26.24 22.83 20.81 20.78 18.90 20.79 23.16 23.10 23.04 22.90 24.30 25.60 26.06 31.41 32.70
34.44 33.00 31.34 30.76 31.87 30.56 33.02 34.79 33.22 26.07 26.27 26.60 26.86 27.29 31.10 27.45 28.67 29.75 24.07 22.17 20.18 21.81 21.64 21.71 22.55 23.65 24.34 24.04 26.12 23.60 22.40 20.16 19.64 18.83 22.59 22.02 23.07 25.14 22.29 22.31 22.32 25.09 24.83
MSLP
1021.69 1021.99 1022.12 1022.26 1022.51 1022.50 1023.06 1023.51 1023.62 1023.76 1024.00 1024.06 1024.07 1023.92 1024.08 1024.09 1023.85 1023.85 1023.63 1023.47 1023.19 1022.95 1022.79 1022.95 1023.25 1023.44 1023.62 1023.68 1023.75 1023.83 1023.83 1023.74 1023.79 1023.82 1023.81 1023.89 1023.88 1023.75 1023.60 1023.40 1023.27 1023.09 1022.89
1021.81 1021.97 1022.07 1022.70 1022.86 1023.01 1023.64 1024.02 1024.02 1024.14 1024.45 1024.46 1024.43 1024.44 1024.54 1024.35 1024.39 1024.31 1024.03 1023.74 1023.31 1023.11 1023.04 1023.11 1023.43 1023.65 1023.83 1024.02 1024.08 1024.08 1024.10 1024.13 1024.18 1024.07 1024.07 1024.02 1023.93 1023.96 1023.95 1023.78 1023.46 1023.18 1022.99
1021.84 1022.00 1022.37 1022.99 1023.30 1023.62 1024.23 1024.22 1024.13 1024.46 1024.80 1024.74 1024.71 1024.87 1024.61 1024.61 1024.74 1024.56 1024.27 1023.95 1023.61 1023.40 1023.27 1023.49 1023.65 1023.86 1024.04 1024.14 1024.30 1024.28 1024.25 1024.37 1024.29 1024.30 1024.22 1024.06 1023.97 1023.97 1023.98 1023.96 1023.82 1023.51 1023.11
1022.12 1022.38 1022.83 1023.41 1023.59 1024.07 1024.42 1024.34 1024.36 1025.02 1025.32 1025.15 1025.25 1025.18 1025.05 1024.99 1024.92 1024.91 1024.61 1024.30 1024.08 1024.07 1024.13 1023.98 1023.94 1024.07 1024.37 1024.47 1024.31 1024.33 1024.28 1024.23 1024.29 1024.30 1024.25 1024.04 1024.03 1024.05 1024.06 1024.05 1023.90 1023.71 1023.37
1022.27 1022.53 1023.06 1023.45 1023.82 1024.02 1024.39 1024.37 1025.06 1025.03 1025.38 1025.49 1025.49 1025.43 1025.38 1025.49 1025.40 1025.14 1025.05 1024.89 1024.75 1024.73 1024.80 1024.68 1024.63 1024.61 1024.61 1024.60 1024.55 1024.50 1024.34 1024.27 1024.18 1024.21 1024.33 1024.30 1024.13 1024.03 1024.03 1023.99 1023.85 1023.65 1023.38
1022.32 1022.68 1023.23 1023.76 1023.90 1024.27 1024.62 1024.91 1025.00 1025.27 1025.51 1025.48 1025.47 1025.55 1025.66 1025.66 1025.66 1025.69 1025.70 1025.44 1025.35 1025.33 1025.28 1025.20 1025.21 1025.15 1024.97 1024.87 1024.68 1024.47 1024.24 1024.08 1024.02 1024.19 1024.28 1024.37 1024.21 1024.06 1024.00 1023.96 1023.71 1023.39 1023.27
1022.26 1022.65 1023.41 1023.92 1024.29 1024.43 1024.65 1024.69 1025.10 1025.28 1025.27 1025.40 1025.43 1025.77 1025.89 1026.06 1026.11 1025.88 1025.86 1025.82 1025.68 1025.66 1025.49 1025.41 1025.35 1025.39 1025.41 1025.27 1025.15 1024.79 1024.53 1024.27 1024.08 1024.10 1024.04 1024.09 1024.15 1024.12 1023.95 1023.71 1023.55 1023.27 1022.97
1022.36 1022.99 1023.62 1024.34 1024.36 1024.38 1024.86 1024.83 1024.94 1025.39 1025.57 1025.60 1026.21 1026.73 1026.92 1026.70 1026.33 1026.25 1026.31 1025.97 1026.09 1025.98 1025.78 1025.71 1025.63 1025.52 1025.56 1025.61 1025.34 1024.98 1024.88 1024.56 1024.21 1024.04 1024.12 1024.14 1024.10 1023.99 1023.76 1023.45 1023.22 1022.93 1022.63
1022.69 1023.43 1024.11 1024.41 1024.46 1024.60 1024.88 1024.80 1025.15 1025.53 1025.89 1026.01 1026.17 1026.66 1027.27 1027.28 1027.04 1026.56 1026.42 1026.39 1026.32 1026.26 1026.03 1025.91 1025.89 1025.83 1025.71 1025.67 1025.50 1025.23 1024.98 1024.92 1024.72 1024.37 1024.07 1023.99 1023.81 1023.62 1023.35 1023.11 1022.91 1022.61 1022.22
1023.46 1023.94 1024.25 1024.41 1024.66 1024.98 1025.33 1025.54 1025.66 1025.98 1026.15 1026.39 1026.56 1026.65 1026.87 1027.03 1027.34 1027.54 1027.01 1026.74 1026.58 1026.38 1026.18 1026.04 1025.91 1025.78 1025.74 1025.73 1025.49 1025.24 1024.93 1024.74 1024.51 1024.24 1023.96 1023.81 1023.63 1023.43 1023.10 1022.91 1022.77 1022.36 1021.79
1023.55 1023.81 1024.21 1024.75 1025.11 1025.20 1025.30 1025.63 1025.98 1026.27 1026.36 1026.64 1026.77 1026.92 1027.17 1027.22 1027.25 1027.51 1027.28 1026.92 1026.66 1026.31 1026.03 1025.91 1025.91 1025.87 1025.66 1025.33 1025.27 1025.15 1024.73 1024.48 1024.25 1024.27 1023.90 1023.77 1023.51 1023.32 1022.94 1022.63 1022.55 1021.99 1021.36
1024.04 1024.32 1024.43 1024.68 1025.17 1025.45 1025.71 1025.96 1026.01 1026.16 1026.42 1026.49 1026.75 1026.94 1027.13 1027.29 1027.19 1027.25 1027.40 1027.24 1026.98 1026.43 1026.01 1025.65 1025.54 1025.53 1025.52 1025.50 1025.20 1024.99 1024.75 1024.64 1024.57 1024.43 1024.17 1023.91 1023.38 1023.17 1022.71 1022.41 1022.04 1021.51 1020.86
1024.03 1024.36 1024.29 1024.74 1024.75 1025.04 1025.56 1025.79 1026.24 1026.35 1026.23 1026.47 1026.64 1026.71 1026.66 1026.65 1026.54 1026.62 1026.82 1026.77 1026.80 1026.43 1026.16 1025.79 1025.63 1025.73 1025.63 1025.71 1025.53 1025.21 1024.98 1024.74 1024.63 1024.32 1024.02 1023.56 1023.13 1022.64 1022.24 1021.82 1021.34 1020.81 1020.18
1023.80 1023.92 1024.19 1024.35 1024.91 1025.15 1025.37 1025.78 1025.95 1025.91 1025.86 1026.05 1026.16 1026.27 1026.17 1026.08 1026.21 1026.14 1026.42 1026.64 1026.44 1026.50 1026.26 1025.88 1025.88 1025.75 1025.79 1025.77 1025.57 1025.15 1024.98 1024.62 1024.34 1023.80 1023.40 1022.96 1022.54 1022.10 1021.69 1021.18 1020.69 1020.18 1019.65
1023.36 1023.71 1023.97 1024.41 1024.87 1025.05 1025.23 1025.51 1025.70 1025.51 1025.61 1025.91 1025.96 1025.92 1025.88 1025.74 1025.79 1025.83 1026.07 1026.11 1026.44 1026.54 1026.83 1026.28 1026.03 1025.75 1025.81 1025.71 1025.55 1025.15 1024.75 1024.30 1023.79 1023.38 1022.85 1022.43 1022.01 1021.61 1021.16 1020.72 1020.23 1019.71 1019.26
1022.71 1023.32 1023.69 1023.86 1024.22 1024.63 1024.80 1025.10 1025.37 1025.10 1025.29 1025.27 1025.25 1025.33 1025.36 1025.37 1025.46 1025.76 1025.80 1026.01 1026.36 1026.76 1026.88 1026.42 1026.03 1025.85 1025.69 1025.48 1025.28 1024.92 1024.51 1023.88 1023.54 1022.91 1022.34 1022.06 1021.60 1021.13 1020.81 1020.41 1019.86 1019.30 1018.86
1022.23 1022.68 1022.85 1023.36 1023.98 1024.21 1024.48 1024.76 1024.93 1024.92 1025.07 1025.13 1025.09 1025.13 1025.22 1025.21 1025.45 1025.64 1025.74 1025.93 1026.21 1026.54 1026.65 1026.06 1025.91 1025.58 1025.55 1025.46 1024.99 1024.66 1024.11 1023.63 1023.07 1022.49 1021.98 1021.56 1021.18 1020.85 1020.41 1019.94 1019.42 1018.93 1018.49
1021.84 1022.22 1022.83 1023.44 1023.78 1023.97 1023.99 1024.17 1024.35 1024.40 1024.52 1024.72 1024.95 1024.89 1024.87 1025.08 1025.31 1025.43 1025.65 1025.84 1026.00 1026.24 1026.57 1026.24 1025.89 1025.63 1025.35 1024.98 1024.74 1024.36 1023.60 1023.01 1022.61 1022.07 1021.47 1021.00 1020.66 1020.18 1019.66 1019.26 1018.71 1018.29 1017.87
1021.59 1022.26 1022.76 1023.12 1023.38 1023.60 1023.68 1023.85 1023.93 1023.98 1024.11 1024.30 1024.42 1024.55 1024.60 1024.84 1025.05 1025.26 1025.53 1025.79 1025.92 1026.00 1026.26 1026.32 1025.95 1025.52 1025.12 1024.84 1024.39 1023.82 1023.19 1022.60 1022.06 1021.49 1020.96 1020.50 1020.05 1019.59 1019.06 1018.60 1018.17 1017.75 1017.28
1021.90 1022.28 1022.52 1022.88 1023.10 1023.08 1023.23 1023.31 1023.46 1023.63 1023.80 1024.02 1024.12 1024.17 1024.24 1024.47 1024.68 1024.92 1025.16 1025.42 1025.61 1025.89 1026.01 1026.07 1025.78 1025.44 1025.12 1024.56 1024.18 1023.67 1022.66 1022.34 1021.55 1021.03 1020.45 1020.12 1019.64 1019.03 1018.48 1018.02 1017.50 1016.99 1016.52
1022.13 1022.44 1022.78 1022.93 1022.77 1022.94 1022.83 1022.87 1023.11 1023.27 1023.44 1023.78 1023.90 1023.99 1024.06 1024.14 1024.05 1024.32 1024.59 1024.96 1025.31 1025.62 1025.76 1025.80 1025.55 1025.23 1024.82 1024.40 1024.05 1023.47 1022.92 1022.03 1021.40 1020.80 1020.24 1019.74 1019.27 1018.57 1017.95 1017.43 1016.83 1016.28 1015.83
1022.37 1022.77 1023.13 1022.90 1022.65 1022.42 1022.29 1022.33 1022.59 1022.95 1023.25 1023.53 1023.71 1023.76 1023.83 1023.58 1023.56 1023.73 1023.92 1024.28 1024.75 1025.08 1025.30 1025.48 1025.23 1025.07 1024.62 1024.25 1023.72 1023.25 1022.72 1022.08 1021.05 1020.35 1020.12 1019.09 1018.68 1018.00 1017.39 1016.81 1016.12 1015.55 1015.06
1022.88 1023.07 1022.93 1022.76 1022.55 1022.29 1022.08 1022.03 1022.21 1022.65 1023.01 1023.15 1023.27 1023.38 1023.51 1023.50 1023.68 1023.87 1023.94 1024.19 1024.41 1024.51 1024.56 1024.81 1024.81 1024.63 1024.27 1023.80 1023.33 1022.76 1022.22 1021.62 1020.91 1020.19 1019.96 1018.74 1017.96 1017.43 1016.59 1016.00 1015.39 1014.84 1014.28
1022.64 1022.56 1022.59 1022.53 1022.37 1022.07 1021.84 1021.81 1021.93 1022.21 1022.58 1022.77 1022.88 1022.94 1023.02 1023.15 1023.42 1023.57 1023.79 1024.04 1024.16 1024.26 1024.27 1024.17 1024.14 1023.96 1023.71 1023.14 1022.80 1022.21 1021.63 1021.05 1020.38 1019.76 1019.53 1018.66 1017.39 1016.83 1015.95 1015.36 1014.77 1014.26 1013.82
1022.23 1022.22 1022.30 1022.33 1022.22 1021.95 1021.65 1021.51 1021.69 1021.88 1022.13 1022.26 1022.32 1022.38 1022.44 1022.59 1022.72 1022.90 1023.36 1023.64 1023.75 1023.69 1023.52 1023.36 1023.19 1022.95 1022.67 1022.35 1022.03 1021.67 1021.38 1020.90 1019.93 1019.17 1018.74 1018.33 1017.09 1016.45 1015.58 1014.67 1014.16 1013.79 1013.42
1022.12 1022.12 1022.16 1022.12 1022.00 1021.80 1021.42 1021.25 1021.43 1021.56 1021.97 1022.03 1021.92 1021.84 1021.84 1021.98 1022.21 1022.31 1022.67 1023.14 1023.40 1023.23 1023.16 1023.05 1022.90 1022.61 1022.38 1022.12 1021.65 1021.48 1021.18 1020.87 1020.26 1019.02 1018.18 1017.96 1016.83 1016.43 1015.37 1014.34 1014.07 1013.56 1013.16
Wind_Speed
5 4 4 4 4 4 5 4 5 5 5 6 5 6 6 6 7 4 3 10 7 6 4 3 5 5 7 9 10 10 10 10 11 11 11 13 15 17 18 19 20 21 21
4 4 5 4 4 4 4 4 4 5 4 4 6 5 5 5 6 5 3 4 10 5 5 2 3 4 5 6 7 7 7 10 10 10 10 11 13 16 17 18 20 21 21
5 5 5 4 4 4 5 4 5 5 4 3 6 4 5 6 5 6 5 4 5 9 7 6 4 4 3 4 3 5 5 6 9 9 9 10 12 14 16 17 18 20 21
6 5 5 4 4 4 3 4 4 4 3 4 3 4 4 5 5 6 5 5 5 4 9 12 6 6 4 3 3 4 5 6 9 6 7 9 11 13 15 16 18 18 20
6 6 5 4 5 5 4 3 2 2 2 2 2 3 4 4 5 4 6 7 7 5 4 9 8 5 1 1 3 6 7 9 11 9 11 11 11 11 14 15 16 18 19
7 6 5 5 5 4 3 2 3 2 2 2 2 3 4 3 3 4 5 4 5 6 5 5 4 4 8 7 8 9 10 10 11 8 9 12 13 14 14 15 17 18 20
7 7 5 5 3 4 4 3 2 3 4 2 3 4 3 2 3 2 3 2 4 4 5 4 3 2 4 9 11 10 11 11 11 12 12 12 13 14 15 16 19 20 21
7 6 6 4 4 5 4 3 4 2 2 3 3 2 3 4 2 2 1 2 2 2 3 4 4 3 2 2 3 5 7 9 10 10 11 11 12 14 17 19 21 22 23
6 6 6 5 5 4 4 4 4 4 1 2 0 3 0 3 2 4 3 0 1 0 1 2 2 2 2 1 2 4 5 5 8 10 11 14 15 17 19 21 24 25 25
7 6 6 6 6 4 6 5 4 1 2 2 1 1 2 3 3 4 3 3 3 2 2 2 2 2 2 2 4 6 7 7 13 13 14 16 17 19 21 22 24 26 26
7 7 7 7 6 4 5 5 3 1 1 1 2 1 1 2 2 3 3 4 2 4 3 3 3 3 4 3 4 6 10 9 5 9 12 15 18 20 22 23 25 27 28
4 6 7 6 5 5 4 3 2 1 1 1 1 1 2 3 3 3 3 4 4 4 3 4 3 3 3 4 7 10 7 9 9 11 14 16 18 22 24 26 28 29 29
4 4 6 5 4 4 2 3 1 2 1 1 3 3 3 4 2 2 2 4 4 2 3 3 3 3 3 4 4 10 10 10 13 16 18 19 21 23 26 26 25 25 26
4 6 5 5 4 3 2 1 1 3 4 4 6 5 3 4 3 3 2 2 4 3 1 4 2 2 2 3 7 15 5 13 17 19 20 19 20 20 21 22 23 24 24
6 5 6 6 5 4 4 4 3 4 4 3 5 5 3 3 3 3 2 3 2 2 2 3 2 1 3 4 8 7 6 14 18 18 19 18 18 20 20 21 23 23 24
8 8 7 7 6 6 6 5 4 3 4 4 3 4 3 2 3 3 3 2 3 3 3 4 4 2 2 5 8 6 7 16 16 16 16 17 19 19 20 21 23 21 22
10 9 9 7 6 6 5 4 4 4 5 4 3 4 5 3 3 2 2 1 2 3 4 3 3 2 3 5 6 5 7 6 6 14 18 18 19 20 21 21 21 20 20
8 7 7 6 6 6 5 6 6 5 6 5 5 4 4 3 4 2 3 4 4 2 3 5 2 2 4 4 6 7 7 7 5 13 18 21 23 24 23 22 18 19 18
7 6 6 7 6 6 6 6 6 6 6 6 6 5 4 4 3 3 4 3 2 2 2 3 4 2 3 3 5 5 6 6 6 16 20 20 19 19 19 21 21 20 20
5 5 5 5 6 7 6 6 6 6 6 5 5 5 5 5 5 5 4 5 3 3 3 3 5 5 4 5 4 5 8 6 9 9 14 14 17 19 22 21 21 21 20
4 3 1 6 6 5 5 6 6 6 6 5 4 5 5 6 9 7 4 5 3 2 3 3 5 5 6 4 4 5 8 9 8 7 6 6 7 8 10 15 16 19 19
6 7 5 5 6 4 8 10 8 6 6 6 6 5 5 6 6 9 8 8 7 3 3 3 4 5 6 4 3 5 6 6 6 2 3 11 6 8 9 7 17 20 22
2 3 5 5 6 6 8 10 11 6 6 6 6 5 4 4 6 5 6 6 5 7 9 5 5 4 4 4 5 8 8 8 8 8 6 11 6 9 8 9 18 20 20
2 4 5 6 6 6 9 10 11 6 6 6 6 6 6 6 6 6 5 5 5 5 5 5 5 6 6 6 6 8 9 9 7 6 4 8 7 8 9 7 16 16 13
5 4 3 5 5 7 8 11 9 6 6 7 6 6 6 6 9 13 6 5 5 6 6 9 9 11 12 14 12 5 6 7 9 8 4 5 5 7 6 9 6 11 10
4 2 5 5 6 7 9 12 11 4 5 5 5 6 11 8 11 14 6 5 5 6 4 5 5 6 8 8 13 5 5 7 8 7 2 4 8 5 4 3 2 4 3
Wind_Direction
120 127 107 94 86 74 72 76 80 72 62 58 43 50 43 36 34 21 4 360 337 325 317 158 136 112 81 68 61 49 43 48 45 41 54 43 35 29 22 14 8 3 358
136 130 107 95 82 82 83 87 85 74 64 53 46 55 46 46 33 26 10 352 355 332 332 101 104 84 87 84 64 49 50 47 25 23 47 39 29 21 14 10 2 356 352
134 122 107 85 91 81 90 84 70 66 53 45 56 35 35 43 40 20 22 25 22 26 67 73 76 111 87 102 50 23 71 39 18 45 36 23 16 10 6 1 358 351 345
113 101 108 108 105 105 100 74 67 60 68 49 35 25 49 45 38 29 26 25 25 33 39 58 62 86 63 10 24 354 10 16 354 353 349 360 4 1 355 349 345 344 341
125 110 106 109 122 95 81 96 70 121 73 27 83 56 51 50 44 32 41 32 37 48 41 27 34 48 92 327 332 323 323 324 328 346 339 337 343 342 340 339 336 336 336
120 114 111 122 108 108 110 125 100 67 133 110 55 33 42 62 49 53 44 38 46 52 48 46 27 348 8 344 324 321 318 314 314 313 314 314 322 331 330 324 323 327 327
124 113 114 123 134 119 101 77 122 66 42 37 61 11 8 82 38 49 73 82 61 48 51 38 40 31 9 8 360 339 326 319 322 308 305 321 316 315 314 316 316 317 318
123 128 130 129 119 98 93 75 61 51 51 30 99 88 3 325 331 42 62 83 70 9 46 56 58 62 44 6 342 29 6 331 322 314 309 304 304 305 306 308 309 311 311
121 107 108 118 86 79 73 61 52 50 31 2 74 140 10 237 342 334 12 64 245 325 31 25 46 42 110 74 12 351 343 338 313 297 294 295 297 299 302 307 307 306 307
98 100 87 73 72 64 49 31 32 33 113 238 11 18 6 141 178 315 315 285 295 237 215 251 281 310 317 303 303 300 290 291 290 283 292 296 298 302 304 307 306 302 302
96 100 92 80 69 67 70 45 16 343 172 138 171 159 297 308 278 247 263 287 318 266 254 237 249 240 262 266 271 289 320 312 312 303 300 299 300 302 302 303 303 301 298
88 80 93 95 98 73 53 42 61 109 166 128 131 205 197 213 233 212 235 256 234 270 257 250 252 257 312 340 331 337 7 7 348 322 309 302 300 298 299 299 298 293 290
115 136 120 112 109 110 106 64 268 280 250 202 211 224 212 222 208 213 204 240 251 279 284 283 274 2 9 16 360 349 348 336 321 309 302 298 297 296 295 294 293 290 287
137 138 121 99 125 146 115 144 221 235 209 209 220 223 228 238 216 210 191 203 278 263 272 260 26 55 27 351 334 329 303 315 308 305 304 303 299 295 292 291 291 290 291
143 130 143 150 170 178 198 210 222 227 186 210 227 234 232 265 224 192 195 182 217 298 276 265 243 267 10 330 317 300 309 310 304 306 303 300 305 300 294 296 293 292 290
151 169 172 169 175 201 208 207 208 187 212 227 226 243 256 231 214 196 205 175 176 195 260 215 242 256 299 310 304 317 299 306 302 302 307 309 305 305 304 298 293 294 293
172 179 183 165 189 207 203 187 220 238 239 252 253 246 261 200 214 233 195 178 183 193 240 281 248 246 268 290 300 285 288 278 273 307 308 306 304 302 300 299 290 287 290
185 175 158 175 206 209 203 207 222 223 214 218 220 204 235 210 222 207 188 201 208 216 226 273 270 278 253 284 275 287 290 298 289 303 308 305 300 298 295 294 294 293 292
173 168 162 195 207 225 231 227 224 219 208 211 207 205 212 211 226 210 210 214 214 224 225 254 284 262 271 282 287 280 282 289 283 306 304 305 303 300 294 291 292 293 292
146 164 193 212 230 239 232 234 208 197 194 204 214 203 206 211 215 211 217 221 211 228 245 262 278 286 268 280 266 295 308 300 305 303 300 294 292 291 299 296 285 284 287
135 96 188 254 256 253 230 219 198 191 190 192 198 204 200 208 219 206 179 208 197 225 258 269 281 281 290 295 298 304 297 307 303 281 284 286 286 293 286 288 283 284 284
58 22 308 302 283 248 238 210 185 189 192 193 203 215 213 239 222 192 205 197 186 200 248 247 270 272 282 276 281 292 294 303 310 254 284 296 292 284 281 278 279 284 287
18 290 302 297 292 277 247 219 194 189 197 203 204 204 215 216 209 197 200 206 234 258 257 231 252 253 265 269 285 295 289 281 279 291 292 295 305 281 283 277 284 293 303
277 283 274 283 286 284 258 227 201 195 205 212 206 206 208 214 210 202 202 228 244 253 261 250 236 255 252 265 251 281 293 297 284 282 260 279 300 282 286 274 282 290 304
254 253 272 309 312 294 277 227 196 195 206 217 211 208 206 214 224 213 195 227 255 268 265 261 272 293 305 311 312 310 304 310 306 303 269 258 284 293 279 279 277 292 309
268 266 290 289 284 289 281 240 215 182 213 224 222 222 226 205 215 208 198 211 245 262 250 266 281 293 301 293 309 294 288 298 305 306 233 306 300 293 295 265 276 284 294